Hourly Data Report for February 05, 2004

SHERBROOKE A
QUEBEC

45°26'00.000" N
71°41'00.000" W
241.40 m
7028124
71610
YSC

Download Data

Hourly Data (February 2004)
Hourly Data Report for February 5, 2004
TIME
LST
Temp Definition
°C
Dew Point Definition
°C
Rel Hum Definition
%
Precip. Amount Definition
mm

Wind Dir Definition
10's deg

Wind Spd Definition
km/h
Visibility Definition
km
Stn Press Definition
kPa
Hmdx Definition


Wind Chill Definition


Weather Definition


00:00 -9.5 -16.4 57   27 30 15.0 99.20   -19  
01:00 -9.6 -16.3 58   27 37 11.3 99.25   -20  
02:00 -9.8 -16.0 61   27 37 15.0 99.34   -20  
03:00 -10.0 -14.8 68   28 26 2.6 99.45   -19 Snow
04:00 -11.2 -16.9 63   28 32 4.8 99.61   -21 Snow
05:00 -12.9 -20.1 55   29 28 12.9 99.84   -23  
06:00 -14.1 -21.0 56   29 19 15.0 100.02   -23  
07:00 -15.7 -21.8 59   27 6 15.0 100.14   -20  
08:00 -15.3 -21.8 58   26 6 24.1 100.23   -20 Clear
09:00 -14.5 -21.4 56   28 13 24.1 100.32   -22 Clear
10:00 -13.1 -20.1 56   27 28 24.1 100.37   -23 Clear
11:00 -11.7 -19.4 53   28 24 24.1 100.38   -21 Clear
12:00 -10.4 -18.3 52   27 22 24.1 100.29   -19 Clear
13:00 -9.7 -17.9 51   27 20 24.1 100.25   -17 Clear
14:00 -9.7 -16.8 56   29 26 24.1 100.28   -19 Mainly Clear
15:00 -9.2 -17.2 52   27 22 24.1 100.36   -17 Mainly Clear
16:00 -9.4 -17.1 53   28 19 24.1 100.40   -17 Mainly Clear
17:00 -10.6 -17.7 56   26 9 24.1 100.42   -16 Mainly Clear
18:00 -12.5 -18.5 61   28 9 15.0 100.46   -18  
19:00 -13.2 -18.3 65   27 9 15.0 100.42   -19  
20:00 -13.5 -18.3 67   28 4 15.0 100.57   -16  
21:00 -16.0 -19.5 74   11 6 15.0 100.56   -20  
22:00 -13.7 -18.4 68   20 9 15.0 100.49   -19  
23:00 -18.3 -22.5 70   11 6 15.0 100.38   -23  

Notes on Data Quality.

Legend

  • E = Estimated
  • M = Missing
  • NA = Not Available*
  • [empty] = Indicates an unobserved value
Date modified: